Simultaneous Nadir Overpasses (SNOs) Predictions

Prediction of SNOs between NOAA-19 and TERRA Satellite Orbit:

Table of predicted SNOs for the next 14.0 days since TLE Epoch: 8/17/2013
Index Date (NOAA-19) Time (NOAA-19) Lat,Lon (NOAA-19) SZA (NOAA-19 ) Date (TERRA) Time (TERRA) Lat,Lon (TERRA) SZA (TERRA ) Distance(km) Time Diff (sec)
1 08/19/2013 01:53:36 -70.02, -28.72 122.84 08/19/2013 01:54:47 -69.91, -28.09 122.96 26.83 71
2 08/19/2013 02:44:32 69.63, 139.12 56.77 08/19/2013 02:44:17 69.64, 139.18 56.78 2.87 15
3 08/21/2013 06:37:53 -70.09, -99.88 122.05 08/21/2013 06:39:04 -69.95, -99.11 122.20 33.17 71
4 08/21/2013 07:28:47 69.62, 68.08 57.49 08/21/2013 07:28:34 69.63, 68.08 57.49 0.72 13
5 08/23/2013 11:22:08 -70.11,-170.96 121.29 08/23/2013 11:23:19 -70.04,-170.06 121.37 35.13 71
6 08/23/2013 12:13:03 69.61, -2.96 58.22 08/23/2013 12:12:52 69.60, -3.02 58.21 2.51 11
7 08/23/2013 13:03:44 -68.62, 165.70 122.77 08/23/2013 13:02:37 -68.67, 163.40 122.71 93.49 67
8 08/25/2013 16:06:25 -70.19, 117.87 120.46 08/25/2013 16:07:36 -70.07, 118.90 120.58 41.12 71
9 08/25/2013 16:57:19 69.61, -74.01 58.97 08/25/2013 16:57:09 69.63, -74.06 58.99 3.32 10
10 08/25/2013 17:48:01 -68.69, 94.55 121.94 08/25/2013 17:46:53 -68.75, 92.43 121.88 86.01 68
11 08/27/2013 20:50:42 -70.26, 46.70 119.62 08/27/2013 20:51:52 -70.14, 47.93 119.74 48.10 70
12 08/27/2013 21:41:36 69.65,-145.13 59.78 08/27/2013 21:41:26 69.64,-145.12 59.77 1.09 10
13 08/27/2013 22:32:17 -68.71, 23.47 121.15 08/27/2013 22:31:10 -68.77, 21.38 121.09 84.72 67
14 08/30/2013 01:34:59 -70.33, -24.46 118.77 08/30/2013 01:36:08 -70.21, -23.04 118.89 55.03 69
15 08/30/2013 02:25:52 69.65, 143.82 60.56 08/30/2013 02:25:43 69.65, 143.82 60.56 0.46 9




NCC Satellite Simultaneous Nadir Overpasses (SNOs) Prediction Service
